• In Czech Republic
  • List of Countries
  • For 7 days
  • Water Temperature
  • Satellite Maps
  • Weather Map
  • Weather Widgets
  • user-avatar
    Login

    Hourly Weather Zorya Truda

    Today, 22 October, Monday

    Time Temperature Precipitation Wind Pressure Humidity
    00:00 +10°C° 0 mm 5 mps 760 mmHg 68%
    01:00 +10°C° 0 mm 5 mps 760 mmHg 70%
    02:00 +9°C° 0 mm 5 mps 760 mmHg 72%
    03:00 +9°C° 0 mm 5 mps 760 mmHg 74%
    04:00 +9°C° 0 mm 5 mps 760 mmHg 75%
    05:00 +8°C° 0 mm 5 mps 760 mmHg 77%
    06:00 +9°C° 0 mm 5 mps 760 mmHg 75%
    07:00 +9°C° 0 mm 5 mps 761 mmHg 73%
    08:00 +10°C° 0 mm 5 mps 761 mmHg 72%
    09:00 +12°C° 0 mm 5 mps 761 mmHg 66%
    10:00 +14°C° 0 mm 4 mps 761 mmHg 60%
    11:00 +17°C° 0 mm 4 mps 761 mmHg 54%
    12:00 +17°C° 0 mm 4 mps 760 mmHg 51%
    13:00 +18°C° 0 mm 3 mps 760 mmHg 49%
    14:00 +18°C° 0 mm 3 mps 760 mmHg 46%
    15:00 +17°C° 0 mm 3 mps 760 mmHg 49%
    16:00 +16°C° 0 mm 3 mps 760 mmHg 52%
    17:00 +14°C° 0 mm 3 mps 759 mmHg 54%
    18:00 +13°C° 0 mm 3 mps 759 mmHg 56%
    19:00 +12°C° 0 mm 3 mps 759 mmHg 59%
    20:00 +12°C° 0 mm 3 mps 760 mmHg 61%
    21:00 +11°C° 0 mm 3 mps 759 mmHg 62%
    22:00 +10°C° 0 mm 3 mps 759 mmHg 62%
    23:00 +10°C° 0 mm 3 mps 759 mmHg 63%

    Tomorrow, 23 October, Tuesday

    Time Temperature Precipitation Wind Pressure Humidity
    00:00 +9°C° 0 mm 3 mps 759 mmHg 64%
    01:00 +9°C° 0 mm 3 mps 759 mmHg 64%
    02:00 +9°C° 0 mm 3 mps 759 mmHg 64%
    03:00 +8°C° 0 mm 3 mps 759 mmHg 64%
    04:00 +8°C° 0 mm 3 mps 759 mmHg 64%
    05:00 +7°C° 0 mm 3 mps 758 mmHg 64%
    06:00 +8°C° 0 mm 3 mps 758 mmHg 61%
    07:00 +8°C° 0 mm 3 mps 759 mmHg 58%
    08:00 +9°C° 0 mm 3 mps 759 mmHg 55%
    09:00 +11°C° 0 mm 3 mps 758 mmHg 51%
    10:00 +12°C° 0 mm 4 mps 758 mmHg 46%
    11:00 +14°C° 0 mm 4 mps 758 mmHg 41%
    12:00 +15°C° 0 mm 5 mps 757 mmHg 39%
    13:00 +15°C° 0 mm 5 mps 757 mmHg 38%
    14:00 +16°C° 0 mm 5 mps 756 mmHg 36%
    15:00 +15°C° 0 mm 5 mps 756 mmHg 40%
    16:00 +14°C° 0 mm 4 mps 755 mmHg 43%
    17:00 +13°C° 0 mm 4 mps 754 mmHg 47%
    18:00 +12°C° 0 mm 3 mps 754 mmHg 50%
    19:00 +11°C° 0 mm 3 mps 754 mmHg 53%
    20:00 +11°C° 0 mm 3 mps 754 mmHg 56%
    21:00 +11°C° 0 mm 4 mps 753 mmHg 57%
    22:00 +12°C° 0 mm 5 mps 752 mmHg 57%
    23:00 +12°C° 0 mm 7 mps 751 mmHg 58%

    Day after tomorrow, 24 October, Wednesday

    Time Temperature Precipitation Wind Pressure Humidity
    00:00 +12°C° 0 mm 7 mps 750 mmHg 58%
    01:00 +12°C° 0 mm 8 mps 749 mmHg 59%
    02:00 +12°C° 0 mm 8 mps 748 mmHg 59%
    03:00 +12°C° 0.1 mm 8 mps 747 mmHg 60%
    04:00 +11°C° 0.1 mm 8 mps 747 mmHg 62%
    05:00 +11°C° 0.1 mm 8 mps 746 mmHg 63%
    06:00 +11°C° 0 mm 8 mps 745 mmHg 61%
    07:00 +11°C° 0 mm 8 mps 744 mmHg 60%
    08:00 +11°C° 0 mm 8 mps 744 mmHg 58%
    09:00 +12°C° 0 mm 9 mps 743 mmHg 55%
    10:00 +13°C° 0 mm 10 mps 742 mmHg 53%
    11:00 +14°C° 0 mm 10 mps 741 mmHg 50%
    12:00 +13°C° 0.2 mm 11 mps 740 mmHg 52%
    13:00 +13°C° 0.2 mm 11 mps 739 mmHg 54%
    14:00 +13°C° 0.2 mm 12 mps 739 mmHg 56%
    15:00 +12°C° 0.7 mm 11 mps 739 mmHg 55%
    16:00 +9°C° 0.7 mm 10 mps 739 mmHg 54%
    17:00 +8°C° 0.7 mm 9 mps 739 mmHg 54%
    18:00 +7°C° 0 mm 9 mps 739 mmHg 54%
    19:00 +6°C° 0 mm 9 mps 740 mmHg 54%
    20:00 +5°C° 0 mm 9 mps 740 mmHg 53%
    21:00 +5°C° 0 mm 9 mps 741 mmHg 56%
    22:00 +6°C° 0 mm 10 mps 741 mmHg 58%
    23:00 +6°C° 0 mm 10 mps 741 mmHg 60%

    25 October, Thursday

    Time Temperature Precipitation Wind Pressure Humidity
    00:00 +6°C° 0 mm 10 mps 742 mmHg 60%
    01:00 +5°C° 0 mm 10 mps 742 mmHg 60%
    02:00 +5°C° 0 mm 10 mps 742 mmHg 60%
    03:00 +5°C° 0 mm 10 mps 742 mmHg 61%
    04:00 +5°C° 0 mm 10 mps 742 mmHg 62%
    05:00 +5°C° 0 mm 10 mps 743 mmHg 63%
    06:00 +5°C° 0 mm 10 mps 743 mmHg 63%
    07:00 +6°C° 0 mm 10 mps 744 mmHg 64%
    08:00 +6°C° 0 mm 10 mps 744 mmHg 65%
    09:00 +7°C° 0.1 mm 10 mps 745 mmHg 63%
    10:00 +7°C° 0.1 mm 11 mps 745 mmHg 60%
    11:00 +7°C° 0.1 mm 11 mps 745 mmHg 58%
    12:00 +8°C° 0 mm 11 mps 746 mmHg 55%
    13:00 +8°C° 0 mm 10 mps 746 mmHg 53%
    14:00 +8°C° 0 mm 10 mps 746 mmHg 50%
    15:00 +7°C° 0 mm 9 mps 747 mmHg 50%
    16:00 +7°C° 0 mm 8 mps 747 mmHg 51%
    17:00 +6°C° 0 mm 7 mps 747 mmHg 51%
    18:00 +7°C° 0 mm 6 mps 747 mmHg 53%
    19:00 +5°C° 0 mm 6 mps 747 mmHg 55%
    20:00 +6°C° 0 mm 5 mps 747 mmHg 56%
    21:00 +5°C° 0.3 mm 6 mps 747 mmHg 58%
    22:00 +5°C° 0.3 mm 7 mps 746 mmHg 59%
    23:00 +5°C° 0.3 mm 8 mps 746 mmHg 61%

    26 October, Friday

    Time Temperature Precipitation Wind Pressure Humidity
    00:00 +6°C° 0.3 mm 8 mps 746 mmHg 64%
    01:00 +6°C° 0.3 mm 9 mps 746 mmHg 68%
    02:00 +7°C° 0.3 mm 10 mps 746 mmHg 71%
    03:00 +7°C° 0 mm 10 mps 746 mmHg 70%
    04:00 +6°C° 0 mm 11 mps 747 mmHg 69%
    05:00 +6°C° 0 mm 11 mps 747 mmHg 68%
    06:00 +6°C° 0 mm 11 mps 748 mmHg 68%
    07:00 +6°C° 0 mm 11 mps 749 mmHg 67%
    08:00 +6°C° 0 mm 10 mps 750 mmHg 67%
    09:00 +6°C° 0 mm 9 mps 751 mmHg 62%
    10:00 +7°C° 0 mm 8 mps 752 mmHg 58%
    11:00 +9°C° 0 mm 7 mps 753 mmHg 53%
    12:00 +10°C° 0 mm 7 mps 753 mmHg 52%
    13:00 +10°C° 0 mm 7 mps 754 mmHg 51%
    14:00 +11°C° 0 mm 6 mps 754 mmHg 49%
    15:00 +12°C° 0 mm 5 mps 755 mmHg 51%
    16:00 +10°C° 0 mm 5 mps 755 mmHg 53%
    17:00 +11°C° 0 mm 4 mps 756 mmHg 54%
    18:00 +10°C° 0 mm 3 mps 756 mmHg 56%
    19:00 +10°C° 0 mm 3 mps 757 mmHg 58%
    20:00 +9°C° 0 mm 3 mps 757 mmHg 59%
    21:00 +9°C° 0 mm 2 mps 757 mmHg 61%
    22:00 +8°C° 0 mm 2 mps 758 mmHg 63%
    23:00 +8°C° 0 mm 2 mps 758 mmHg 65%

    27 October, Saturday

    Time Temperature Precipitation Wind Pressure Humidity
    00:00 +8°C° 0 mm 2 mps 758 mmHg 66%
    01:00 +8°C° 0 mm 3 mps 758 mmHg 67%
    02:00 +8°C° 0 mm 3 mps 758 mmHg 68%
    03:00 +7°C° 0 mm 4 mps 758 mmHg 73%
    04:00 +8°C° 0 mm 5 mps 758 mmHg 78%
    05:00 +8°C° 0 mm 5 mps 758 mmHg 83%
    06:00 +9°C° 0 mm 6 mps 757 mmHg 83%
    07:00 +10°C° 0 mm 6 mps 757 mmHg 84%
    08:00 +11°C° 0 mm 6 mps 757 mmHg 85%
    09:00 +14°C° 0 mm 7 mps 757 mmHg 75%
    10:00 +16°C° 0 mm 8 mps 757 mmHg 65%
    11:00 +18°C° 0 mm 8 mps 757 mmHg 55%
    12:00 +18°C° 0 mm 8 mps 756 mmHg 52%
    13:00 +20°C° 0 mm 8 mps 756 mmHg 49%
    14:00 +21°C° 0 mm 8 mps 756 mmHg 46%
    15:00 +18°C° 0 mm 8 mps 756 mmHg 54%
    16:00 +17°C° 0 mm 8 mps 755 mmHg 61%
    17:00 +16°C° 0 mm 8 mps 755 mmHg 68%
    18:00 +15°C° 0 mm 8 mps 755 mmHg 72%
    19:00 +15°C° 0 mm 8 mps 756 mmHg 75%
    20:00 +15°C° 0 mm 8 mps 756 mmHg 79%
    21:00 +13°C° 0 mm 8 mps 756 mmHg 79%
    22:00 +13°C° 0 mm 8 mps 756 mmHg 79%
    23:00 +13°C° 0 mm 8 mps 756 mmHg 79%

    28 October, Sunday

    Time Temperature Precipitation Wind Pressure Humidity
    00:00 +13°C° 0 mm 8 mps 756 mmHg 79%
    01:00 +13°C° 0 mm 8 mps 756 mmHg 80%
    02:00 +13°C° 0 mm 8 mps 756 mmHg 80%
    03:00 +13°C° 0 mm 8 mps 756 mmHg 81%
    04:00 +14°C° 0 mm 7 mps 756 mmHg 82%
    05:00 +14°C° 0 mm 7 mps 755 mmHg 83%
    06:00 +15°C° 0 mm 8 mps 756 mmHg 80%
    07:00 +15°C° 0 mm 8 mps 756 mmHg 78%
    08:00 +16°C° 0 mm 8 mps 756 mmHg 76%
    09:00 +17°C° 0 mm 8 mps 756 mmHg 72%
    10:00 +18°C° 0 mm 8 mps 756 mmHg 67%
    11:00 +19°C° 0 mm 9 mps 756 mmHg 63%
    12:00 +21°C° 0 mm 9 mps 756 mmHg 62%
    13:00 +21°C° 0 mm 8 mps 756 mmHg 62%
    14:00 +21°C° 0 mm 8 mps 755 mmHg 61%
    15:00 +20°C° 0 mm 8 mps 756 mmHg 66%
    16:00 +18°C° 0 mm 7 mps 756 mmHg 71%
    17:00 +17°C° 0 mm 7 mps 756 mmHg 77%
    18:00 +17°C° 0 mm 7 mps 756 mmHg 79%
    19:00 +16°C° 0 mm 7 mps 756 mmHg 81%
    20:00 +16°C° 0 mm 7 mps 756 mmHg 84%
    21:00 +16°C° 0 mm 7 mps 757 mmHg 85%
    22:00 +15°C° 0 mm 7 mps 757 mmHg 86%
    23:00 +15°C° 0 mm 6 mps 757 mmHg 87%
    Show more